EW3845 Weather Reports


time (UTC)temp
C
wind
direction
speed
KPH
gust
KPH
rain 1hr
cm
rain 24hr
cm
rain mn
cm
humidity
%
barometer
mb
20260510132552 21 16 0.0 0.0 0.00 0.00 0.00 56 1010.2
20260510132040 21 21 0.0 0.0 0.00 0.00 0.00 58 1010.3
20260510131657 21 13 0.0 0.0 0.00 0.00 0.00 57 1010.3
20260510131553 21 13 0.0 0.0 0.00 0.00 0.00 57 1010.5
20260510131037 21 131 0.0 0.0 0.00 0.00 0.00 56 1010.5
20260510130549 21 129 0.0 0.0 0.00 0.00 0.00 58 1010.5
20260510130157 21 172 0.0 0.0 0.00 0.00 0.00 58 1010.4
20260510130055 21 172 0.0 0.0 0.00 0.00 0.00 60 1010.7
20260510125547 21 23 0.0 0.0 0.00 0.00 0.00 58 1010.7
20260510125055 21 19 0.0 0.0 0.00 0.00 0.00 59 1010.7
20260510124649 21 150 0.0 0.0 0.00 0.00 0.00 58 1010.7
20260510124548 21 150 0.0 0.0 0.00 0.00 0.00 57 1010.8
20260510124055 21 16 0.0 0.0 0.00 0.00 0.00 60 1011.0
20260510123548 21 19 0.0 0.0 0.00 0.00 0.00 61 1011.0
20260510123156 20 50 0.0 0.0 0.00 0.00 0.00 61 1011.0
20260510123056 20 33 0.0 0.0 0.00 0.00 0.00 61 1011.2
20260510122549 20 33 0.0 0.0 0.00 0.00 0.00 60 1011.3
20260510122039 21 27 0.0 0.0 0.00 0.00 0.00 58 1011.3
20260510121653 20 31 0.0 0.0 0.00 0.00 0.00 58 1011.2
20260510121551 21 42 0.0 0.0 0.00 0.00 0.00 59 1011.4
20260510121038 21 36 0.0 0.0 0.00 0.00 0.00 57 1011.4
20260510120550 21 27 0.0 0.0 0.00 0.00 0.00 57 1011.4
20260510120158 21 36 0.0 0.0 0.00 0.00 0.00 60 1011.4
20260510120057 21 34 0.0 0.0 0.00 0.00 0.00 61 1011.5
20260510115546 21 32 0.0 0.0 0.00 0.00 0.00 58 1011.5
20260510115055 21 16 0.0 0.0 0.00 0.00 0.00 58 1011.5
20260510114650 21 19 0.0 0.0 0.00 0.00 0.00 57 1011.4
20260510114547 21 32 0.0 0.0 0.00 0.00 0.00 58 1011.5
20260510114053 21 26 0.0 0.0 0.00 0.00 0.00 57 1011.5
20260510113545 21 47 0.0 0.0 0.00 0.00 0.00 57 1011.4
20260510113053 21 10 0.0 0.0 0.00 0.00 0.00 57 1011.3
20260510113009 21 10 0.0 0.0 0.00 0.00 0.00 57 1011.2
20260510112543 21 355 0.0 0.0 0.00 0.00 0.00 56 1011.6
20260510112050 21 175 0.0 0.0 0.00 0.00 0.00 58 1011.6
20260510111602 21 50 0.0 0.0 0.00 0.00 0.00 57 1011.7
20260510111051 21 34 0.0 0.0 0.00 0.00 0.00 59 1011.8
20260510110601 21 41 0.0 0.0 0.00 0.00 0.00 58 1011.8
20260510110045 21 55 0.0 0.0 0.00 0.00 0.00 60 1011.7
20260510110007 21 55 0.0 0.0 0.00 0.00 0.00 60 1011.6
20260510105604 21 48 0.0 0.0 0.00 0.00 0.00 61 1011.9
20260510104509 20 131 0.0 0.0 0.00 0.00 0.00 60 1011.8
20260510103006 20 144 0.0 0.0 0.00 0.00 0.00 60 1012.1
20260510101504 20 40 0.0 0.0 0.00 0.00 0.00 62 1012.2
20260510100002 20 32 0.0 0.0 0.00 0.00 0.00 63 1012.3
20260510094607 20 43 0.0 0.0 0.00 0.00 0.00 63 1012.4
20260510093101 20 12 0.0 0.0 0.00 0.00 0.00 65 1012.4
20260510091554 19 41 0.0 0.0 0.00 0.00 0.00 67 1012.6
20260510090057 18 18 0.0 0.0 0.00 0.00 0.00 67 1012.6
20260510084607 18 29 0.0 0.0 0.00 0.00 0.00 70 1012.7
20260510083045 17 31 0.0 0.0 0.00 0.00 0.00 73 1012.7
20260510081549 16 25 0.0 0.0 0.00 0.00 0.00 77 1012.9
20260510080034 15 37 0.0 0.0 0.00 0.00 0.00 78 1012.9
20260510074531 14 24 0.0 0.0 0.00 0.00 0.00 81 1013.0
20260510073028 13 33 0.0 0.0 0.00 0.00 0.00 83 1013.1
20260510071531 13 28 0.0 0.0 0.00 0.00 0.00 84 1013.0
20260510070035 12 15 0.0 0.0 0.00 0.00 0.00 85 1013.0
20260510064527 12 22 0.0 0.0 0.00 0.00 0.00 87 1013.0
20260510063024 11 21 0.0 0.0 0.00 0.00 0.00 86 1012.9
20260510061523 11 21 0.0 0.0 0.00 0.00 0.00 87 1013.0
20260510060022 11 21 0.0 0.0 0.00 0.00 0.00 87 1013.0
20260510054522 11 21 0.0 0.0 0.00 0.00 0.00 87 1012.9
20260510053025 10 21 0.0 0.0 0.00 0.00 0.00 87 1012.9
20260510051521 10 21 0.0 0.0 0.00 0.00 0.00 87 1012.9
20260510050026 10 21 0.0 0.0 0.00 0.00 0.00 86 1012.9
20260510044529 10 21 0.0 0.0 0.00 0.00 0.00 86 1012.9
20260510043018 10 21 0.0 0.0 0.00 0.00 0.00 85 1013.1
20260510041518 10 21 0.0 0.0 0.00 0.00 0.00 85 1013.1
20260510040014 10 21 0.0 0.0 0.00 0.00 0.00 84 1013.1
20260510034511 10 21 0.0 0.0 0.00 0.00 0.00 83 1013.1
20260510033010 11 21 0.0 0.0 0.00 0.00 0.00 83 1013.1
20260510031508 11 21 0.0 0.0 0.00 0.00 0.00 82 1013.1
20260510030006 11 21 0.0 0.0 0.00 0.00 0.00 82 1013.3
20260510024505 11 21 0.0 0.0 0.00 0.00 0.00 81 1013.4
20260510023003 11 21 0.0 0.0 0.00 0.00 0.00 81 1013.3
20260510021506 11 21 0.0 0.0 0.00 0.00 0.00 81 1013.5
20260510020002 12 21 0.0 0.0 0.00 0.00 0.00 81 1013.6
20260510014601 12 21 0.0 0.0 0.00 0.00 0.00 81 1013.6
20260510013103 11 21 0.0 0.0 0.00 0.00 0.00 80 1013.6
20260510011602 11 21 0.0 0.0 0.00 0.00 0.00 81 1013.6
20260510010105 11 21 0.0 0.0 0.00 0.00 0.00 80 1013.6
20260510004556 11 21 0.0 0.0 0.00 0.00 0.00 80 1013.7
20260510003056 11 21 0.0 0.0 0.00 0.00 0.00 79 1013.8
20260510001554 11 21 0.0 0.0 0.00 0.00 0.00 78 1013.9
20260510000104 12 21 0.0 0.0 0.00 0.00 0.00 77 1014.0
20260509234557 12 21 0.0 0.0 0.00 0.00 0.00 76 1014.3
20260509233049 12 21 0.0 0.0 0.00 0.00 0.00 75 1014.3
20260509231547 12 21 0.0 0.0 0.00 0.00 0.00 75 1014.4
20260509230042 12 21 0.0 0.0 0.00 0.00 0.00 74 1014.5
20260509224540 13 21 0.0 0.0 0.00 0.00 0.00 73 1014.6
20260509223042 13 21 0.0 0.0 0.00 0.00 0.00 73 1014.6
20260509221540 13 21 0.0 0.0 0.00 0.00 0.00 72 1014.7
20260509220036 13 21 0.0 0.0 0.00 0.00 0.00 72 1014.8
20260509214535 14 21 0.0 0.0 0.00 0.00 0.00 71 1014.8
20260509213038 14 21 0.0 0.0 0.00 0.00 0.00 70 1014.8
20260509211533 14 21 0.0 0.0 0.00 0.00 0.00 70 1014.9
20260509210040 14 21 0.0 0.0 0.00 0.00 0.00 70 1015.0
20260509204539 15 22 0.0 0.0 0.00 0.00 0.00 70 1015.0
20260509203032 15 22 0.0 0.0 0.00 0.00 0.00 70 1015.1
20260509201532 15 22 0.0 0.0 0.00 0.00 0.00 69 1015.0
20260509200034 15 22 0.0 0.0 0.00 0.00 0.00 68 1015.0
20260509194534 15 22 0.0 0.0 0.00 0.00 0.00 68 1014.9
20260509193030 16 22 0.0 0.0 0.00 0.00 0.00 68 1014.9
20260509191529 16 22 0.0 0.0 0.00 0.00 0.00 67 1014.9
20260509190032 16 22 0.0 0.0 0.00 0.00 0.00 66 1014.7
20260509184541 17 22 0.0 0.0 0.00 0.00 0.00 63 1014.6
20260509183031 17 22 0.0 0.0 0.00 0.00 0.00 61 1014.4
20260509181527 18 22 0.0 0.0 0.00 0.00 0.00 60 1014.3
20260509180026 18 23 0.0 0.0 0.00 0.00 0.00 59 1014.4
20260509174533 19 21 0.0 0.0 0.00 0.00 0.00 58 1014.3
20260509173025 19 15 0.0 0.0 0.00 0.00 0.00 58 1014.2
20260509171531 19 15 0.0 0.0 0.00 0.00 0.00 56 1014.1
20260509170024 20 38 0.0 0.0 0.00 0.00 0.00 54 1014.1
20260509164523 20 38 0.0 0.0 0.00 0.00 0.00 50 1014.2
20260509163024 20 38 0.0 0.0 0.00 0.00 0.00 52 1014.5
20260509161523 20 38 0.0 0.0 0.00 0.00 0.00 51 1014.6
20260509160021 20 38 0.0 0.0 0.00 0.00 0.00 53 1014.5
20260509154519 20 38 0.0 0.0 0.00 0.00 0.00 50 1014.6
20260509153030 20 39 0.0 0.0 0.00 0.00 0.00 49 1014.7
20260509151517 20 37 0.0 0.0 0.00 0.00 0.00 50 1014.9
20260509150026 20 37 0.0 0.0 0.00 0.00 0.00 50 1015.0
20260509144526 20 35 0.0 0.0 0.00 0.00 0.00 49 1015.0
20260509143018 21 325 0.0 0.0 0.00 0.00 0.00 50 1015.2
20260509141516 21 33 0.0 0.0 0.00 0.00 0.00 48 1015.3
20260509140008 21 40 0.0 0.0 0.00 0.00 0.00 50 1015.5
20260509135606 22 40 0.0 0.0 0.00 0.00 0.00 48 1015.6
20260509135054 22 40 0.0 0.0 0.00 0.00 0.00 49 1015.8
20260509134647 21 40 0.0 0.0 0.00 0.00 0.00 49 1015.7
20260509134546 22 40 0.0 0.0 0.00 0.00 0.00 49 1015.7
20260509134051 22 42 0.0 0.0 0.00 0.00 0.00 50 1015.8
20260509133542 22 42 0.0 0.0 0.00 0.00 0.00 51 1015.9
20260509133153 21 27 0.0 0.0 0.00 0.00 0.00 49 1015.8
20260509133052 22 26 0.0 0.0 0.00 0.00 0.00 49 1015.9